TimeCST,TemperatureF,Dew PointF,Humidity,Sea Level PressureIn,VisibilityMPH,Wind Direction,Wind SpeedMPH,Gust SpeedMPH,PrecipitationIn,Events,Conditions,WindDirDegrees,DateUTC
12:15 AM,62.6,51.8,68,30.22,10.0,NE,16.1,24.2,N/A,,Overcast,50,2013-12-28 06:15:00
12:35 AM,62.6,51.8,68,30.19,10.0,ENE,21.9,28.8,N/A,,Overcast,60,2013-12-28 06:35:00
12:55 AM,62.6,51.8,68,30.20,10.0,NE,18.4,28.8,N/A,,Overcast,50,2013-12-28 06:55:00
1:15 AM,62.6,51.8,68,30.22,10.0,NNE,10.4,21.9,N/A,,Overcast,30,2013-12-28 07:15:00
1:35 AM,62.6,51.8,68,30.21,9.0,NE,11.5,20.7,N/A,,Overcast,40,2013-12-28 07:35:00
1:55 AM,60.8,51.8,72,30.20,10.0,ENE,17.3,-,N/A,,Overcast,60,2013-12-28 07:55:00
2:15 AM,60.8,51.8,72,30.19,8.0,ENE,18.4,-,N/A,,Overcast,60,2013-12-28 08:15:00
2:35 AM,60.8,51.8,72,30.18,9.0,ENE,17.3,-,N/A,,Mostly Cloudy,60,2013-12-28 08:35:00
2:55 AM,60.8,51.8,72,30.20,10.0,Variable,6.9,21.9,N/A,,Mostly Cloudy,0,2013-12-28 08:55:00
3:15 AM,60.8,51.8,72,30.19,9.0,NNE,8.1,13.8,N/A,,Overcast,30,2013-12-28 09:15:00
3:35 AM,62.6,51.8,68,30.19,10.0,NE,8.1,-,N/A,,Overcast,40,2013-12-28 09:35:00
3:55 AM,62.6,51.8,68,30.20,9.0,NNE,6.9,12.7,N/A,,Overcast,30,2013-12-28 09:55:00
4:15 AM,60.8,50.0,68,30.18,6.0,NNE,8.1,-,N/A,,Haze,30,2013-12-28 10:15:00
4:35 AM,60.8,51.8,72,30.17,6.0,NNE,9.2,-,N/A,,Haze,30,2013-12-28 10:35:00
4:55 AM,59.0,51.8,77,30.16,6.0,NNE,9.2,18.4,N/A,,Haze,30,2013-12-28 10:55:00
5:15 AM,59.0,51.8,77,30.15,7.0,NE,10.4,21.9,N/A,,Mostly Cloudy,40,2013-12-28 11:15:00
5:35 AM,59.0,51.8,77,30.16,10.0,NE,13.8,19.6,N/A,,Mostly Cloudy,50,2013-12-28 11:35:00
5:55 AM,59.0,50.0,72,30.15,7.0,NE,11.5,21.9,N/A,,Mostly Cloudy,40,2013-12-28 11:55:00
6:15 AM,60.8,50.0,68,30.16,10.0,ENE,15.0,-,N/A,,Mostly Cloudy,60,2013-12-28 12:15:00
6:35 AM,60.8,50.0,68,30.16,10.0,NE,6.9,19.6,N/A,,Mostly Cloudy,40,2013-12-28 12:35:00
6:55 AM,60.8,50.0,68,30.18,10.0,NNE,8.1,15.0,N/A,,Overcast,30,2013-12-28 12:55:00
7:15 AM,60.8,50.0,68,30.17,8.0,NE,8.1,16.1,N/A,,Overcast,40,2013-12-28 13:15:00
7:35 AM,60.8,51.8,72,30.18,6.0,NNE,10.4,-,N/A,,Haze,30,2013-12-28 13:35:00
7:55 AM,60.8,51.8,72,30.19,6.0,NE,9.2,16.1,N/A,,Haze,40,2013-12-28 13:55:00
8:15 AM,59.0,51.8,77,30.18,4.0,NNE,10.4,18.4,N/A,,Haze,30,2013-12-28 14:15:00
8:35 AM,59.0,51.8,77,30.17,6.0,NE,13.8,23.0,N/A,,Haze,50,2013-12-28 14:35:00
8:55 AM,59.0,51.8,77,30.17,8.0,NE,12.7,21.9,N/A,,Mostly Cloudy,50,2013-12-28 14:55:00
9:15 AM,60.8,51.8,72,30.19,7.0,NNE,6.9,13.8,N/A,,Mostly Cloudy,30,2013-12-28 15:15:00
9:35 AM,60.8,51.8,72,30.19,9.0,NNE,10.4,-,N/A,,Overcast,30,2013-12-28 15:35:00
9:55 AM,60.8,51.8,72,30.18,7.0,NNE,9.2,-,N/A,,Mostly Cloudy,30,2013-12-28 15:55:00
10:15 AM,60.8,51.8,72,30.20,8.0,NNE,6.9,13.8,N/A,,Overcast,30,2013-12-28 16:15:00
10:35 AM,60.8,51.8,72,30.18,6.0,NNE,8.1,13.8,N/A,,Haze,30,2013-12-28 16:35:00
10:55 AM,60.8,51.8,72,30.17,4.0,ENE,13.8,-,N/A,,Haze,60,2013-12-28 16:55:00
11:15 AM,59.0,51.8,77,30.16,4.0,NNE,9.2,16.1,N/A,,Haze,30,2013-12-28 17:15:00
11:35 AM,59.0,51.8,77,30.17,5.0,NNE,8.1,-,N/A,,Haze,30,2013-12-28 17:35:00
11:55 AM,59.0,51.8,77,30.16,7.0,Variable,6.9,-,N/A,,Mostly Cloudy,0,2013-12-28 17:55:00
12:15 PM,59.0,51.8,77,30.15,8.0,Variable,6.9,15.0,N/A,,Overcast,0,2013-12-28 18:15:00
12:35 PM,60.8,50.0,68,30.14,10.0,North,6.9,-,N/A,,Overcast,10,2013-12-28 18:35:00
12:55 PM,60.8,50.0,68,30.12,10.0,Variable,6.9,-,N/A,,Overcast,0,2013-12-28 18:55:00
1:15 PM,60.8,50.0,68,30.10,8.0,Variable,5.8,-,N/A,,Overcast,0,2013-12-28 19:15:00
1:35 PM,60.8,51.8,72,30.08,10.0,NNE,6.9,-,N/A,,Overcast,30,2013-12-28 19:35:00
1:55 PM,60.8,50.0,68,30.07,10.0,Variable,6.9,13.8,N/A,,Overcast,0,2013-12-28 19:55:00
2:15 PM,60.8,51.8,72,30.08,10.0,NNE,8.1,-,N/A,,Overcast,20,2013-12-28 20:15:00
2:35 PM,60.8,51.8,72,30.08,10.0,North,8.1,13.8,N/A,,Overcast,360,2013-12-28 20:35:00
2:55 PM,60.8,51.8,72,30.09,10.0,Variable,6.9,12.7,N/A,,Overcast,0,2013-12-28 20:55:00
3:15 PM,60.8,50.0,68,30.07,10.0,NNE,9.2,-,N/A,,Mostly Cloudy,30,2013-12-28 21:15:00
3:35 PM,60.8,50.0,68,30.07,10.0,NNE,5.8,12.7,N/A,,Mostly Cloudy,20,2013-12-28 21:35:00
3:55 PM,62.6,50.0,63,30.06,10.0,North,6.9,-,N/A,,Scattered Clouds,360,2013-12-28 21:55:00
4:15 PM,62.6,50.0,63,30.05,10.0,NNE,6.9,-,N/A,,Partly Cloudy,30,2013-12-28 22:15:00
4:35 PM,60.8,50.0,68,30.05,10.0,North,6.9,-,N/A,,Clear,10,2013-12-28 22:35:00
4:55 PM,62.6,51.8,68,30.04,10.0,NNE,6.9,-,N/A,,Scattered Clouds,20,2013-12-28 22:55:00
5:15 PM,60.8,50.0,68,30.06,10.0,Variable,4.6,-,N/A,,Scattered Clouds,0,2013-12-28 23:15:00
5:35 PM,62.6,50.0,63,30.06,10.0,Variable,4.6,-,N/A,,Partly Cloudy,0,2013-12-28 23:35:00
5:55 PM,62.6,50.0,63,30.05,10.0,Variable,6.9,-,N/A,,Scattered Clouds,0,2013-12-28 23:55:00
6:15 PM,60.8,50.0,68,30.04,10.0,Variable,4.6,-,N/A,,Mostly Cloudy,0,2013-12-29 00:15:00
6:35 PM,60.8,50.0,68,30.04,10.0,Variable,5.8,-,N/A,,Partly Cloudy,0,2013-12-29 00:35:00
6:55 PM,60.8,50.0,68,30.05,10.0,NNE,5.8,-,N/A,,Clear,30,2013-12-29 00:55:00
7:15 PM,62.6,50.0,63,30.07,10.0,Calm,Calm,-,N/A,,Partly Cloudy,0,2013-12-29 01:15:00
7:35 PM,62.6,48.2,59,30.08,10.0,North,5.8,-,N/A,,Partly Cloudy,360,2013-12-29 01:35:00
7:55 PM,60.8,48.2,63,30.06,10.0,NNE,4.6,-,N/A,,Clear,20,2013-12-29 01:55:00
8:15 PM,62.6,48.2,59,30.06,10.0,Variable,5.8,-,N/A,,Clear,0,2013-12-29 02:15:00
8:35 PM,60.8,48.2,63,30.07,10.0,Calm,Calm,-,N/A,,Clear,0,2013-12-29 02:35:00
8:55 PM,62.6,48.2,59,30.07,10.0,Calm,Calm,-,N/A,,Clear,0,2013-12-29 02:55:00
9:15 PM,62.6,48.2,59,30.07,10.0,Calm,Calm,-,N/A,,Clear,0,2013-12-29 03:15:00
9:35 PM,62.6,48.2,59,30.07,10.0,Calm,Calm,-,N/A,,Clear,0,2013-12-29 03:35:00
9:55 PM,62.6,48.2,59,30.07,10.0,Calm,Calm,-,N/A,,Clear,0,2013-12-29 03:55:00
10:15 PM,62.6,48.2,59,30.07,10.0,Calm,Calm,-,N/A,,Clear,0,2013-12-29 04:15:00
10:35 PM,62.6,46.4,55,30.06,10.0,Calm,Calm,-,N/A,,Clear,0,2013-12-29 04:35:00
10:55 PM,62.6,46.4,55,30.06,10.0,Calm,Calm,-,N/A,,Clear,0,2013-12-29 04:55:00
11:15 PM,62.6,46.4,55,30.04,10.0,Calm,Calm,-,N/A,,Clear,0,2013-12-29 05:15:00
11:35 PM,62.6,48.2,59,30.04,10.0,Calm,Calm,-,N/A,,Clear,0,2013-12-29 05:35:00
11:55 PM,62.6,48.2,59,30.05,10.0,Calm,Calm,-,N/A,,Clear,0,2013-12-29 05:55:00